Weather History for KBLM - April, 2012

Change the Weather History Date:

Tuesday, April 24, 2012

  Actual Average Record
Temperature  
Mean Temperature 48 °F -  
Max Temperature 60 °F 61 °F 86 °F (2001)
Min Temperature 37 °F 42 °F 33 °F (2002)
Degree Days  
Heating Degree Days 16    
Moisture  
Dew Point 30 °F    
Average Humidity 53    
Maximum Humidity 87    
Minimum Humidity 22    
Precipitation  
Precipitation 0.00 in - - ()
Sea Level Pressure  
Sea Level Pressure 29.56 in    
Wind  
Wind Speed 10 mph (SW)    
Max Wind Speed 18 mph    
Max Gust Speed 29 mph    
Visibility 10 miles    
Events      
Averages and records for this station are not official NWS values.
T = Trace of Precipitation, MM = Missing Value Source: NWS Daily Summary

Daily Weather History Graph

Daily Weather History Graph

Search for Another Location

Airport or City:

Trip Planner

Search our weather history database for the weather conditions in past years. The results will help you decide how hot, cold, wet, or windy it might be!

Date:

Astronomy

Apr. 24, 2012 Rise Set
Actual Time 6:04 AM EDT 7:44 PM EDT
Civil Twilight 5:35 AM EDT 8:13 PM EDT
Nautical Twilight 5:01 AM EDT 8:48 PM EDT
Astronomical Twilight 4:23 AM EDT 9:26 PM EDT
Moon 7:58 AM EDT (4/24) 11:03 PM EDT (4/24)
Length of Visible Light 14h 37m
Length of Day
13h 40m
Waxing Crescent, 10% of the Moon is Illuminated
Apr 24
Waxing Crescent
Apr 29
First Quarter
May 5
Full
May 12
Last Quarter
May 20
New

Hourly Weather History & Observations

Time (EDT) Temp. Windchill Dew Point Humidity Pressure Visibility Wind Dir Wind Speed Gust Speed Precip Events Conditions
12:15 AM 41.0 °F 34.7 °F 32.0 °F 70% 29.44 in 10.0 mi SW 10.4 mph - N/A   Mostly Cloudy
12:35 AM 41.0 °F 36.4 °F 33.8 °F 76% 29.44 in 10.0 mi SW 6.9 mph - N/A   Mostly Cloudy
12:55 AM 39.2 °F 34.2 °F 33.8 °F 81% 29.44 in 10.0 mi SW 6.9 mph - N/A   Mostly Cloudy
1:15 AM 39.2 °F 35.0 °F 33.8 °F 81% 29.44 in 10.0 mi SW 5.8 mph - N/A   Scattered Clouds
1:35 AM 39.2 °F 35.0 °F 33.8 °F 81% 29.44 in 10.0 mi SSW 5.8 mph - N/A   Partly Cloudy
1:55 AM 39.2 °F 34.2 °F 33.8 °F 81% 29.44 in 10.0 mi SSW 6.9 mph - N/A   Clear
2:15 AM 39.2 °F 34.2 °F 33.8 °F 81% 29.44 in 10.0 mi SSW 6.9 mph - N/A   Scattered Clouds
2:35 AM 39.2 °F 35.0 °F 33.8 °F 81% 29.45 in 10.0 mi SSW 5.8 mph - N/A   Mostly Cloudy
2:55 AM 37.4 °F 32.8 °F 33.8 °F 87% 29.45 in 10.0 mi SSW 5.8 mph - N/A   Partly Cloudy
3:15 AM 37.4 °F 32.1 °F 33.8 °F 87% 29.46 in 10.0 mi SSW 6.9 mph - N/A   Clear
3:35 AM 37.4 °F 31.4 °F 33.8 °F 87% 29.46 in 10.0 mi SW 8.1 mph - N/A   Clear
3:55 AM 37.4 °F 31.4 °F 33.8 °F 87% 29.47 in 10.0 mi SW 8.1 mph - N/A   Clear
4:15 AM 37.4 °F 32.8 °F 33.8 °F 87% 29.47 in 10.0 mi SW 5.8 mph - N/A   Clear
4:35 AM 37.4 °F 32.1 °F 33.8 °F 87% 29.47 in 10.0 mi SSW 6.9 mph - N/A   Clear
5:15 AM 37.4 °F 32.1 °F 33.8 °F 87% 29.48 in 10.0 mi SSW 6.9 mph - N/A   Clear
5:35 AM 37.4 °F 31.4 °F 33.8 °F 87% 29.48 in 10.0 mi SSW 8.1 mph - N/A   Clear
5:55 AM 37.4 °F 32.1 °F 32.0 °F 81% 29.49 in 10.0 mi SW 6.9 mph - N/A   Clear
6:15 AM 37.4 °F 32.1 °F 32.0 °F 81% 29.49 in 10.0 mi SW 6.9 mph - N/A   Clear
6:35 AM 37.4 °F 30.8 °F 32.0 °F 81% 29.50 in 10.0 mi SW 9.2 mph - N/A   Clear
6:55 AM 39.2 °F 32.0 °F 32.0 °F 75% 29.50 in 10.0 mi SW 11.5 mph - N/A   Clear
7:15 AM 39.2 °F 32.5 °F 32.0 °F 75% 29.51 in 10.0 mi SW 10.4 mph - N/A   Clear
7:35 AM 42.8 °F 36.6 °F 32.0 °F 66% 29.52 in 10.0 mi SW 11.5 mph 17.3 mph N/A   Clear
8:15 AM 44.6 °F 39.7 °F 30.2 °F 57% 29.54 in 10.0 mi WSW 9.2 mph 16.1 mph N/A   Clear
8:35 AM 44.6 °F 38.1 °F 30.2 °F 57% 29.54 in 10.0 mi SW 13.8 mph 19.6 mph N/A   Clear
8:55 AM 44.6 °F 39.2 °F 30.2 °F 57% 29.55 in 10.0 mi WSW 10.4 mph - N/A   Clear
9:15 AM 44.6 °F 38.1 °F 30.2 °F 57% 29.55 in 10.0 mi WSW 13.8 mph 21.9 mph N/A   Clear
9:55 AM 48.2 °F - 30.2 °F 50% 29.55 in 10.0 mi WSW 11.5 mph 20.7 mph N/A   Clear
10:15 AM 48.2 °F - 30.2 °F 50% 29.56 in 10.0 mi SW 15.0 mph 19.6 mph N/A   Clear
10:35 AM 50.0 °F - 30.2 °F 47% 29.56 in 10.0 mi SW 12.7 mph 19.6 mph N/A   Clear
10:55 AM 51.8 °F - 30.2 °F 44% 29.57 in 10.0 mi SW 16.1 mph 21.9 mph N/A   Clear
11:15 AM 51.8 °F - 30.2 °F 44% 29.57 in 10.0 mi SW 10.4 mph 20.7 mph N/A   Partly Cloudy
11:35 AM 53.6 °F - 26.6 °F 35% 29.57 in 10.0 mi WSW 13.8 mph 26.5 mph N/A   Partly Cloudy
11:55 AM 55.4 °F - 26.6 °F 33% 29.57 in 10.0 mi WSW 16.1 mph 26.5 mph N/A   Partly Cloudy
12:15 PM 55.4 °F - 24.8 °F 31% 29.57 in 10.0 mi WSW 18.4 mph 28.8 mph N/A   Partly Cloudy
12:35 PM 57.2 °F - 24.8 °F 29% 29.57 in 10.0 mi SW 13.8 mph 28.8 mph N/A   Partly Cloudy
12:55 PM 57.2 °F - 23.0 °F 27% 29.56 in 10.0 mi WSW 18.4 mph 25.3 mph N/A   Scattered Clouds
1:15 PM 59.0 °F - 23.0 °F 25% 29.56 in 10.0 mi WSW 16.1 mph 25.3 mph N/A   Mostly Cloudy
1:35 PM 59.0 °F - 23.0 °F 25% 29.56 in 10.0 mi WSW 18.4 mph 26.5 mph N/A   Mostly Cloudy
1:55 PM 59.0 °F - 23.0 °F 25% 29.56 in 10.0 mi SW 15.0 mph 26.5 mph N/A   Mostly Cloudy
2:15 PM 60.8 °F - 21.2 °F 22% 29.56 in 10.0 mi SW 18.4 mph 24.2 mph N/A   Mostly Cloudy
2:35 PM 59.0 °F - 21.2 °F 23% 29.56 in 10.0 mi WSW 11.5 mph 24.2 mph N/A   Mostly Cloudy
2:55 PM 59.0 °F - 21.2 °F 23% 29.56 in 10.0 mi WSW 16.1 mph 26.5 mph N/A   Mostly Cloudy
3:15 PM 60.8 °F - 24.8 °F 25% 29.56 in 10.0 mi SSW 16.1 mph 24.2 mph N/A   Mostly Cloudy
3:35 PM 57.2 °F - 32.0 °F 38% 29.56 in 10.0 mi South 16.1 mph 20.7 mph N/A   Mostly Cloudy
3:55 PM 57.2 °F - 30.2 °F 36% 29.57 in 10.0 mi South 16.1 mph 21.9 mph N/A   Mostly Cloudy
4:15 PM 57.2 °F - 37.4 °F 48% 29.57 in 10.0 mi South 18.4 mph 25.3 mph N/A   Mostly Cloudy
4:35 PM 55.4 °F - 39.2 °F 54% 29.57 in 10.0 mi SSE 15.0 mph 21.9 mph N/A   Mostly Cloudy
4:55 PM 55.4 °F - 41.0 °F 58% 29.57 in 10.0 mi South 15.0 mph 21.9 mph N/A   Mostly Cloudy
5:15 PM 55.4 °F - 39.2 °F 54% 29.58 in 10.0 mi SSE 10.4 mph 19.6 mph N/A   Mostly Cloudy
5:35 PM 57.2 °F - 42.8 °F 59% 29.58 in 10.0 mi SSE 12.7 mph 17.3 mph N/A   Mostly Cloudy
5:55 PM 57.2 °F - 39.2 °F 51% 29.59 in 10.0 mi South 9.2 mph 17.3 mph N/A   Overcast
6:15 PM 59.0 °F - 26.6 °F 29% 29.59 in 10.0 mi SW 10.4 mph 18.4 mph N/A   Mostly Cloudy
6:55 PM 57.2 °F - 24.8 °F 29% 29.61 in 10.0 mi SW 13.8 mph 18.4 mph N/A   Partly Cloudy
7:15 PM 57.2 °F - 24.8 °F 29% 29.62 in 10.0 mi SW 8.1 mph - N/A   Partly Cloudy
7:35 PM 57.2 °F - 24.8 °F 29% 29.63 in 10.0 mi WSW 5.8 mph - N/A   Clear
7:55 PM 55.4 °F - 24.8 °F 31% 29.64 in 10.0 mi WSW 5.8 mph - N/A   Clear
8:35 PM 53.6 °F - 24.8 °F 33% 29.66 in 10.0 mi WSW 3.5 mph - N/A   Mostly Cloudy
8:55 PM 53.6 °F - 26.6 °F 35% 29.67 in 10.0 mi WSW 3.5 mph - N/A   Overcast
9:15 PM 53.6 °F - 26.6 °F 35% 29.68 in 10.0 mi West 4.6 mph - N/A   Overcast
9:35 PM 53.6 °F - 28.4 °F 38% 29.69 in 10.0 mi WSW 4.6 mph - N/A   Overcast
9:55 PM 53.6 °F - 28.4 °F 38% 29.70 in 10.0 mi WSW 3.5 mph - N/A   Mostly Cloudy
10:15 PM 53.6 °F - 28.4 °F 38% 29.70 in 10.0 mi SW 3.5 mph - N/A   Mostly Cloudy
10:35 PM 51.8 °F - 28.4 °F 41% 29.70 in 10.0 mi South 4.6 mph - N/A   Overcast
10:55 PM 51.8 °F - 28.4 °F 41% 29.70 in 10.0 mi South 4.6 mph - N/A   Mostly Cloudy
11:15 PM 50.0 °F - 30.2 °F 47% 29.72 in 10.0 mi WNW 9.2 mph - N/A   Scattered Clouds
11:35 PM 48.2 °F - 30.2 °F 50% 29.72 in 10.0 mi WNW 4.6 mph - N/A   Clear
11:55 PM 48.2 °F - 30.2 °F 50% 29.73 in 10.0 mi WNW 6.9 mph - N/A   Partly Cloudy